Location: Lombard
(41.8800°N, 88.0080°W)
Time: 04:51:05
(UTC-06:00)

Explorer 7 - Visible Passes

Search period start: 28 January 2023 00:00
Search period end: 07 February 2023 00:00
Orbit: 480 x 660 km, 50.3° (Epoch: 27 January)

Date Brightness Start Highest point End Pass type
(mag) Time Alt. Az. Time Alt. Az. Time Alt. Az.
28 Jan 7.7 18:19:51 10° NW 18:24:19 43° NNE 18:26:23 27° ENE visible
28 Jan 9.1 20:00:10 10° WNW 20:02:28 28° WNW 20:02:28 28° WNW visible
29 Jan 7.4 18:20:51 10° NW 18:25:26 53° NNE 18:27:47 27° E visible
29 Jan 9.1 20:01:19 10° WNW 20:03:54 28° W 20:03:54 28° W visible
30 Jan 7.1 18:21:49 10° NW 18:26:30 69° NNE 18:29:21 24° ESE visible
30 Jan 9.2 20:02:35 10° WNW 20:05:27 25° WSW 20:05:27 25° WSW visible
31 Jan 7.1 18:22:48 10° WNW 18:27:30 88° SSW 18:31:04 18° SE visible
31 Jan 9.5 20:04:05 10° W 20:07:11 19° SW 20:07:11 19° SW visible
01 Feb 7.5 18:23:49 10° WNW 18:28:26 64° SW 18:33:01 11° SE visible
01 Feb 9.9 20:06:13 10° WSW 20:08:07 12° SW 20:09:10 11° SW visible
02 Feb 8.2 18:24:53 10° WNW 18:29:19 44° SW 18:33:51 10° SSE visible
03 Feb 9.0 18:26:03 10° WNW 18:30:08 30° SW 18:34:18 10° SSE visible
04 Feb 9.7 18:27:26 10° W 18:30:53 21° SW 18:34:24 10° S visible
05 Feb 10.1 18:29:16 10° W 18:31:35 14° SW 18:33:56 10° SSW visible
